Location: Ehrke Reservoir
(40.0279°N, 99.6641°W)
Time: 22:08:58
(UTC+00:00)

FENGYUN 3A - Pass Details

Date: 20 January 2020
Orbit: 824 x 836 km, 98.4° (Epoch: 16 February)

Event Time Altitude Azimuth Distance (km) Brightness Sun altitude
Rises 11:36:30 0° 17° (NNE) 3,374 7.0 -26.6°
Reaches altitude 10° 11:38:54 10° 21° (NNE) 2,438 6.3 -26.1°
Maximum altitude 11:44:13 58° 101° (E) 965 4.2 -25.1°
Drops below altitude 10° 11:49:31 10° 180° (S) 2,430 6.2 -24.1°
Sets 11:51:54 0° 184° (S) 3,361 6.9 -23.6°
